Theta_e
340 347 358 357 355 354 353 351 350 350 349 349 348 348 349 349 347 343 341 339 337 336 335 335 334 334 334 334 333 332 332 333 334 336 339 343 345 349 352 350 352 352 356
343 348 357 356 355 353 352 352 351 350 349 348 348 347 345 344 342 341 338 337 337 337 336 335 335 335 335 335 335 334 334 333 332 332 333 335 335 340 346 347 350 352 356
343 350 354 356 355 354 352 351 350 349 349 348 347 346 345 344 340 339 338 337 337 337 336 336 336 335 336 336 336 336 336 336 336 336 336 329 332 334 340 342 351 352 355
345 351 348 356 354 354 352 352 350 349 348 348 347 346 344 344 343 339 339 337 337 337 337 336 337 337 336 337 337 337 337 338 338 338 337 332 328 330 340 342 342 351 353
347 348 350 356 355 354 353 352 351 350 349 348 347 346 344 344 343 342 341 338 338 338 337 338 339 339 339 339 339 339 339 339 338 338 339 338 335 331 343 345 346 349 351
345 346 349 355 355 355 353 352 351 350 349 349 348 347 346 344 345 343 342 341 340 340 339 340 341 341 341 341 341 341 341 341 342 342 342 339 337 338 343 345 348 351 352
343 346 346 355 354 354 354 353 351 350 349 349 348 348 347 346 345 344 343 340 341 341 341 341 343 343 344 344 343 343 343 343 344 342 343 343 339 339 343 348 351 355 352
344 347 345 353 354 354 354 353 351 349 349 349 349 348 347 346 346 345 344 342 341 342 343 343 344 344 345 343 341 341 341 341 338 340 342 344 339 338 342 347 349 352 351
344 346 346 348 352 353 353 352 351 350 349 349 348 347 347 347 346 346 345 344 343 345 344 345 345 346 345 343 342 341 339 338 338 338 338 343 338 340 341 344 346 348 351
342 343 343 347 348 347 348 353 352 351 350 349 348 348 347 347 347 346 344 345 344 344 345 346 346 347 346 344 342 339 338 338 338 339 338 341 339 341 340 342 344 347 349
337 339 341 340 347 347 346 348 352 351 350 349 349 349 346 342 342 342 343 345 346 346 346 346 347 348 347 344 342 340 339 341 339 337 337 337 340 341 341 342 343 345 347
338 339 338 340 343 346 342 347 349 347 346 345 344 346 345 343 343 340 342 345 347 347 347 348 348 347 346 343 341 340 339 339 337 337 335 337 340 341 342 341 342 344 347
339 340 340 340 342 343 342 342 346 348 347 348 347 349 348 343 343 342 340 342 343 345 341 344 345 346 345 343 341 340 339 338 337 336 336 336 338 340 340 341 342 344 348
332 337 342 342 340 343 342 341 342 343 345 344 344 349 346 344 342 341 339 339 343 340 341 343 343 346 346 345 343 340 339 338 337 337 337 336 338 340 341 340 341 344 346
328 331 335 343 344 344 344 341 342 342 342 344 343 345 344 340 341 340 340 338 339 341 341 341 342 343 345 345 343 340 339 339 339 338 338 336 338 340 341 342 342 343 344
330 331 334 336 348 345 343 344 342 343 342 342 342 343 345 341 343 340 340 339 340 339 338 338 340 343 346 344 342 340 339 340 339 339 338 338 337 339 340 340 341 343 344
329 333 336 337 338 346 346 345 343 342 341 341 341 343 343 343 342 340 338 338 338 340 339 338 340 343 342 344 341 339 339 340 339 338 338 337 337 337 338 340 341 342 344
330 331 336 328 329 341 345 345 343 341 340 340 341 341 343 343 342 340 338 337 339 338 337 336 335 340 343 343 339 337 338 339 338 335 337 337 336 336 337 339 341 343 344
332 334 333 334 329 338 344 343 344 344 340 341 342 341 342 342 342 341 338 340 339 337 337 336 336 340 341 341 337 337 337 339 337 334 333 337 338 337 337 339 340 342 343
331 334 334 331 333 337 340 343 342 342 342 342 342 342 343 343 342 341 339 340 340 338 336 335 339 339 338 338 335 335 336 336 335 333 334 335 336 338 339 341 342 338 340
331 332 335 332 335 333 336 336 338 337 340 341 342 344 344 344 343 341 340 340 340 338 335 339 339 338 335 331 332 330 332 334 334 333 333 334 335 336 338 340 341 339 338
330 332 335 333 332 334 336 340 341 341 338 338 343 344 345 344 341 342 342 336 334 335 340 339 338 334 334 332 325 324 322 326 330 332 333 331 330 334 335 337 340 340 340
327 331 331 332 333 336 340 340 340 340 339 338 340 341 341 343 343 343 339 336 339 341 338 339 338 335 327 326 328 327 321 319 325 330 331 331 334 333 335 337 338 339 341
325 325 327 334 336 337 340 340 340 338 337 339 340 343 343 344 343 340 338 342 342 340 340 337 334 332 328 325 325 328 328 327 321 318 327 328 329 330 335 338 338 333 338
322 321 328 337 339 339 340 342 340 340 340 341 341 342 344 344 343 338 343 342 341 339 339 339 334 328 329 330 328 326 326 327 329 324 320 322 323 332 336 330 339 339 339
317 322 333 339 340 340 341 342 342 340 339 338 340 340 340 340 340 340 339 340 341 339 338 337 336 334 331 332 329 328 326 323 323 323 324 323 322 323 328 328 333 333 337
Wind_Speed
10 20 23 22 20 20 20 19 17 15 14 14 14 13 12 11 12 13 13 13 13 12 12 11 11 10 9 9 8 8 7 7 7 7 8 9 8 5 6 1 4 7 10
18 21 24 23 21 20 20 19 18 16 14 14 15 14 13 11 11 11 12 12 12 12 11 10 10 9 8 8 7 7 6 6 6 6 6 4 5 7 5 7 5 6 9
19 19 21 22 22 21 20 19 18 17 16 15 14 15 15 14 14 12 11 12 11 11 10 9 9 7 7 6 6 6 5 4 5 4 5 3 4 7 5 4 7 6 9
17 18 19 21 21 21 20 19 18 18 17 16 16 16 16 16 15 15 13 12 11 11 10 9 8 6 4 5 5 4 4 3 3 3 2 4 3 4 7 7 3 10 8
15 18 17 21 20 20 21 20 20 18 17 17 17 16 16 16 15 15 14 14 12 11 10 9 8 6 4 3 3 2 3 2 1 2 2 3 3 2 8 9 8 10 10
16 17 16 20 20 20 21 21 21 20 20 20 19 19 18 18 17 16 16 15 14 12 11 9 8 7 5 4 4 3 3 3 4 1 1 1 4 5 8 11 10 11 9
14 15 16 20 20 20 20 22 22 21 21 22 21 21 19 19 19 18 16 16 15 13 12 11 9 8 6 4 2 2 2 3 7 3 3 3 3 5 9 12 10 10 9
14 14 15 18 17 17 17 16 17 19 20 20 21 20 20 19 18 17 16 16 14 13 12 11 10 9 6 5 3 2 3 4 6 5 5 3 1 6 8 12 4 5 7
11 12 13 15 16 16 15 16 17 18 19 18 18 18 19 19 18 17 16 15 14 12 11 11 10 8 6 6 5 4 4 5 7 4 6 4 3 5 7 8 5 4 6
9 11 13 13 15 16 16 17 18 19 18 19 19 18 18 17 18 17 15 14 15 14 13 11 10 9 7 7 6 4 5 6 7 6 5 4 3 5 6 7 6 6 6
7 10 12 13 13 14 14 14 16 20 20 20 18 18 16 13 15 16 15 15 15 15 13 12 11 9 8 7 6 6 6 3 4 4 4 3 5 6 6 7 8 7 7
13 14 13 14 15 14 12 13 15 15 14 14 15 16 14 14 12 13 14 16 15 13 12 11 10 10 9 5 4 6 4 3 3 4 5 4 7 8 8 8 9 8 9
13 10 14 12 13 14 12 10 8 8 9 10 16 13 13 10 10 10 8 9 9 11 8 10 9 8 9 5 4 4 4 4 2 3 4 6 8 9 9 9 10 9 9
11 13 12 14 13 14 10 11 11 11 11 10 13 15 11 9 11 10 8 10 9 8 9 8 7 9 9 9 8 7 6 5 3 3 4 7 9 10 10 10 11 9 9
11 14 12 12 14 13 14 11 11 12 12 12 13 15 13 12 11 11 10 10 10 8 9 9 8 6 8 9 9 8 7 6 6 4 4 5 10 10 10 10 10 10 10
11 13 12 13 13 12 14 15 12 11 12 13 12 12 16 12 10 12 12 11 10 8 9 6 7 7 8 8 9 8 8 7 6 6 5 4 8 8 9 10 10 12 13
11 12 11 10 9 13 15 14 12 12 12 12 12 14 15 14 13 12 11 11 10 8 8 6 7 7 7 7 9 7 7 8 8 7 6 6 5 9 9 10 12 11 13
10 11 12 11 11 13 14 12 10 11 11 11 10 10 15 15 14 13 11 10 9 8 7 7 7 8 7 7 7 7 7 6 7 4 7 6 6 5 6 9 9 11 12
11 12 13 10 13 13 13 11 11 11 10 10 9 9 13 14 14 13 10 9 9 7 8 7 7 8 6 6 7 5 5 6 5 5 8 10 8 7 5 4 7 8 11
11 11 10 9 10 11 8 7 7 8 9 8 9 9 14 11 14 12 9 9 9 7 8 7 9 7 6 5 3 5 5 6 6 8 8 8 7 7 6 5 4 7 9
11 11 11 9 8 8 5 6 7 9 8 8 8 11 13 11 13 12 9 9 10 9 8 9 7 8 6 3 3 5 7 7 7 7 5 7 6 6 5 5 5 4 6
12 12 11 9 6 7 7 5 4 7 6 7 8 9 11 12 12 11 11 9 9 8 10 10 9 4 4 4 3 4 4 4 6 7 6 6 4 4 5 6 6 7 5
12 12 9 8 5 7 9 7 6 8 6 6 7 7 9 11 12 11 10 8 11 10 9 9 8 8 5 4 7 4 3 4 2 3 6 4 5 4 3 5 6 6 5
14 9 9 6 6 9 13 11 12 7 8 6 8 8 9 11 11 10 9 10 10 7 8 7 6 6 5 5 4 6 2 1 2 4 4 2 2 3 2 4 6 5 5
12 10 8 5 7 10 12 11 10 8 5 7 8 12 9 9 10 10 10 10 8 7 7 7 8 7 7 6 6 4 5 3 1 1 3 4 2 2 1 2 3 5 6
12 8 6 8 8 11 11 11 11 12 11 10 10 9 8 7 7 9 9 8 8 7 7 6 6 8 8 6 5 5 6 5 5 3 2 3 4 2 1 2 2 2 3
Wind_Direction
186 165 167 169 169 164 162 164 169 173 167 164 159 157 153 152 149 147 143 139 138 137 132 126 121 117 111 104 97 86 73 56 40 37 26 25 21 27 21 161 167 179 143
152 168 168 170 170 168 164 165 169 173 174 170 165 160 156 154 150 149 147 146 146 141 138 132 126 122 115 106 96 87 79 73 56 34 22 13 15 358 354 342 196 147 158
154 166 172 171 173 170 167 170 168 173 173 177 170 162 161 163 158 157 157 154 153 147 141 135 127 122 120 117 114 106 85 66 60 36 28 355 347 354 351 320 284 196 184
155 165 175 177 174 173 171 171 171 173 174 177 171 168 168 166 162 164 165 164 159 153 151 144 137 136 135 135 128 124 114 88 63 49 346 359 329 356 335 323 310 263 198
163 170 177 178 177 179 174 174 174 175 177 177 173 174 174 168 167 169 168 167 169 166 162 157 153 156 162 170 157 160 150 139 64 271 6 349 325 39 328 315 284 245 199
168 177 175 179 184 186 179 178 175 178 179 182 179 179 179 176 175 174 174 175 174 174 174 172 175 180 186 205 234 223 236 247 245 227 299 18 297 356 317 310 288 257 217
168 182 181 189 187 193 189 183 179 181 185 184 184 182 182 182 181 178 178 178 179 180 182 186 188 198 209 199 242 234 282 279 277 247 252 270 306 323 314 322 298 207 210
170 184 190 192 190 198 197 193 186 188 191 190 188 186 184 187 185 181 180 180 186 187 191 195 201 206 204 203 195 231 265 272 260 276 258 245 355 308 317 332 265 197 220
177 189 190 196 198 201 200 195 192 199 197 196 196 193 193 189 186 185 185 183 185 196 200 204 209 217 215 215 214 217 249 270 278 271 262 240 140 300 304 319 308 276 241
187 197 197 199 201 206 202 202 196 202 200 201 200 199 202 197 191 188 187 190 189 194 207 213 216 224 224 228 234 232 235 254 261 275 248 244 250 282 289 293 313 279 267
205 208 207 204 208 209 211 208 203 207 205 204 204 202 199 204 200 193 195 188 196 198 203 213 220 223 225 232 241 243 246 255 272 260 263 185 253 267 272 278 281 285 257
217 214 210 209 209 206 209 210 213 214 211 212 207 205 207 206 202 200 198 197 200 201 207 212 220 228 220 231 215 229 255 290 265 259 261 250 256 257 258 271 276 277 239
237 233 217 210 211 212 213 207 212 213 215 212 213 206 205 203 202 201 200 198 201 204 213 206 212 223 220 224 224 240 250 254 260 246 251 245 253 255 256 255 266 269 222
253 247 225 208 201 208 213 213 212 214 212 213 209 205 204 201 202 200 199 200 198 201 206 214 217 223 223 220 222 237 240 250 243 252 254 243 249 249 254 249 251 257 225
269 270 250 206 208 206 207 216 217 218 214 213 212 205 203 205 203 199 202 203 203 200 197 209 223 223 232 231 227 225 237 243 251 259 264 232 247 242 248 248 250 247 231
264 266 260 226 218 205 213 215 216 217 221 217 210 209 208 205 201 201 200 204 207 201 206 213 212 223 234 234 229 226 239 246 241 247 261 253 238 252 240 245 255 244 227
249 255 254 243 221 216 220 221 220 217 215 217 216 208 201 202 200 206 210 209 212 210 211 207 221 226 237 234 233 226 237 241 245 245 251 255 242 225 252 249 252 247 231
255 244 254 253 247 228 226 221 223 226 215 217 213 204 200 197 196 204 213 213 207 210 210 217 228 228 230 231 229 231 241 239 235 255 256 249 248 252 238 231 247 239 215
239 251 259 253 245 232 230 223 218 217 216 213 205 197 193 194 197 207 211 200 200 206 209 218 227 233 233 228 229 239 241 235 232 240 254 249 244 247 238 189 249 212 197
256 259 254 257 239 227 223 213 211 212 213 201 195 193 185 194 198 199 202 196 186 193 211 211 227 217 242 253 239 247 260 255 249 232 226 238 237 228 227 239 205 193 205
254 256 248 253 227 199 184 196 209 212 200 198 191 187 189 195 192 194 190 186 191 196 197 201 207 214 207 202 261 273 265 242 223 215 222 227 215 218 217 219 209 210 188
255 261 260 263 249 202 197 185 187 173 190 180 182 186 189 189 184 186 179 175 180 190 195 189 192 179 212 187 200 236 255 195 212 221 207 214 212 238 209 211 205 209 214
266 261 272 286 269 207 189 163 133 129 128 167 176 176 182 181 179 180 172 161 177 187 185 185 191 192 197 186 215 257 202 235 165 158 204 218 211 214 203 219 200 204 216
259 274 280 279 216 192 180 178 178 169 159 174 171 166 164 172 169 161 156 172 178 183 184 179 190 192 194 193 195 216 260 315 241 164 121 174 220 262 212 214 197 174 227
260 267 275 238 200 179 182 183 178 162 138 143 149 151 147 153 150 153 164 167 173 187 184 183 174 178 196 206 208 170 212 201 189 323 136 128 65 283 214 237 227 187 190
264 254 208 188 175 173 175 177 175 149 141 139 144 144 148 135 141 151 159 167 179 177 179 176 177 192 195 204 205 204 200 204 208 203 157 132 151 89 95 57 196 162 184